RH
92 91 88 87 86 87 87 86 84 82 82 83 81 81 67 43 40 32 41 52 50 50 46 28 26 26 28 29 30 38 88 86 61 45 38 28 39 40 43 48 43 45 36 39 45
91 88 88 85 87 86 85 80 77 76 77 77 73 72 52 42 35 22 43 52 50 50 33 28 31 30 32 31 30 53 63 49 31 48 47 39 46 49 50 57 54 52 34 36 38
77 84 82 84 85 84 84 78 79 73 73 54 47 48 39 39 30 22 42 52 50 45 31 30 30 30 36 31 33 35 64 42 33 28 77 79 58 47 56 57 53 58 54 45 43
51 68 73 78 82 82 80 79 77 64 47 42 37 32 28 40 26 25 42 40 40 31 29 28 29 35 38 41 32 53 39 36 38 33 35 72 73 50 48 49 39 43 52 63 45
43 57 39 37 75 80 78 79 64 47 51 38 34 29 39 21 26 28 32 28 26 29 29 31 38 36 42 41 39 42 34 38 41 40 36 32 50 46 45 34 39 51 61 50 50
32 24 24 18 29 71 73 45 36 38 45 42 35 36 21 26 26 26 26 25 31 33 32 32 37 38 46 42 48 42 46 56 49 46 36 39 38 40 38 31 39 72 63 46 46
24 26 19 15 18 29 42 29 24 27 35 42 33 46 27 22 21 24 24 23 30 33 34 36 41 48 40 45 37 47 84 60 48 39 36 35 44 44 33 34 50 62 60 46 42
15 21 21 17 17 21 28 34 32 29 30 32 29 33 21 15 20 23 22 24 29 32 43 44 47 48 47 38 43 57 79 60 40 36 35 39 51 33 30 35 54 52 47 49 44
15 22 24 20 17 21 25 22 24 32 36 27 21 24 15 13 21 27 21 23 34 30 35 39 43 44 40 38 46 48 52 50 55 49 52 45 48 48 41 51 52 53 51 55 48
17 24 25 20 19 22 22 26 19 19 25 26 19 23 10 15 24 24 19 22 33 31 30 36 43 38 34 48 78 60 63 50 64 58 67 54 47 50 54 55 59 59 53 56 58
18 23 19 18 23 28 38 26 23 19 20 26 25 23 14 18 21 15 20 23 26 22 37 35 46 51 42 41 54 50 55 48 37 69 74 47 44 54 59 67 67 63 59 62 60
19 19 16 20 27 34 41 37 58 66 27 18 15 20 17 18 17 15 21 26 36 26 33 40 44 41 38 41 47 43 44 53 38 39 39 53 45 48 59 60 59 61 68 64 69
19 17 14 20 27 42 53 62 68 70 38 16 17 19 19 18 18 17 22 28 35 25 34 46 39 41 38 41 52 47 56 58 47 37 33 43 50 47 51 59 54 58 65 74 75
21 19 14 21 40 44 52 70 73 70 72 19 16 17 18 15 22 13 24 30 28 32 34 46 31 49 41 43 49 80 45 55 51 48 79 39 86 50 56 59 62 69 77 75 87
24 21 15 20 33 36 59 72 75 56 69 20 19 17 16 19 19 17 26 25 38 34 31 33 36 58 51 53 48 56 46 59 55 57 67 49 98 84 90 75 80 77 85 90 88
23 28 19 34 38 50 72 67 54 89 58 26 20 23 22 17 18 19 31 27 27 36 32 30 25 40 43 41 47 44 72 60 46 64 78 58 90 85 81 92 77 76 79 84 83
25 37 22 37 34 52 72 48 90 70 17 25 28 27 21 28 23 23 50 59 66 76 59 40 32 30 36 47 40 50 79 72 78 83 68 53 71 94 99 80 75 84 88 87 88
31 41 29 42 47 62 42 65 69 34 27 25 28 25 27 29 30 29 31 39 44 66 76 70 63 36 37 54 66 66 78 87 71 64 57 54 93 95 96 70 67 74 79 82 88
36 45 32 39 29 51 43 85 51 35 33 34 31 24 21 26 36 36 30 47 47 60 87 85 50 33 41 45 51 63 79 76 89 58 60 58 93 72 57 66 69 78 77 85 87
40 34 31 27 27 40 86 69 41 35 34 36 39 34 34 37 48 42 42 56 59 49 56 84 85 42 46 39 41 56 51 88 85 85 77 65 78 84 78 88 79 83 91 88 87
40 26 39 19 41 54 86 54 39 33 38 45 43 45 36 42 44 46 47 35 44 51 56 85 85 61 46 71 83 61 78 68 86 75 91 58 89 94 92 94 93 88 92 96 93
34 65 30 35 75 86 61 42 38 35 33 37 40 38 42 34 52 52 44 41 38 47 88 83 83 82 58 56 50 62 60 68 80 79 91 77 90 94 92 94 93 87 89 93 94
38 32 36 48 98 74 43 45 38 35 37 37 40 40 40 42 60 35 40 36 41 53 88 80 83 83 75 81 44 61 56 66 75 88 92 92 90 85 85 91 83 90 94 96 96
66 100 78 80 70 38 39 38 45 41 41 38 41 34 43 44 38 52 45 42 42 52 58 60 86 88 86 87 80 82 77 74 80 84 90 89 82 82 73 90 87 87 94 96 94
65 78 44 86 68 52 56 44 35 41 39 38 39 36 45 80 63 60 51 53 49 54 57 77 85 70 63 60 67 70 83 86 87 76 86 90 83 90 85 92 95 94 93 94 91
82 77 57 47 39 62 63 55 34 41 39 39 49 37 39 65 52 68 61 63 69 63 82 79 78 65 76 67 65 74 70 72 74 71 64 73 87 69 81 67 88 95 93 94 91
51 50 52 67 58 62 60 53 48 56 39 35 39 42 43 42 42 43 46 49 55 77 79 81 84 79 80 56 83 87 92 82 82 75 79 81 84 73 82 74 89 93 95 94 94
Wind_Speed
14 15 16 17 17 17 17 17 16 16 14 12 9 7 7 2 5 8 10 14 16 18 18 16 14 14 16 12 15 15 6 11 20 22 23 19 10 18 19 20 24 12 19 9 8
15 16 18 18 18 18 18 18 17 15 12 8 6 6 6 6 7 10 11 15 17 17 15 16 14 14 10 12 8 11 13 21 21 8 16 14 13 13 17 17 21 15 23 19 6
16 17 18 18 18 18 18 19 18 12 9 6 5 6 7 6 11 8 16 17 17 14 13 13 14 14 15 11 11 14 15 22 19 15 10 13 12 9 18 18 13 16 14 16 5
17 18 18 18 18 18 18 18 13 7 7 5 6 5 5 5 4 14 18 18 19 14 14 13 12 13 13 9 10 10 16 16 18 19 12 10 13 13 19 16 15 19 12 11 6
18 19 19 20 18 19 19 16 8 5 6 4 5 5 8 1 7 14 17 19 22 15 12 10 13 13 11 14 13 16 17 15 16 17 21 14 20 15 19 17 16 5 9 10 5
18 19 19 21 18 20 19 8 4 4 4 4 5 7 6 7 15 15 21 23 16 12 11 10 9 12 12 14 11 12 16 19 19 19 18 15 18 17 19 15 15 10 13 3 6
18 19 19 21 17 22 17 5 2 4 5 4 7 7 6 7 17 16 21 23 14 11 9 11 10 9 14 14 6 12 13 17 15 15 14 13 18 22 20 17 9 15 17 7 11
19 19 20 22 17 21 10 5 2 0 5 7 7 6 2 10 20 16 24 26 15 10 8 10 9 12 10 11 14 9 6 6 3 6 10 12 11 11 20 17 13 12 9 10 14
19 18 20 22 17 21 5 8 6 3 4 7 7 5 2 15 27 21 25 24 15 8 6 9 7 7 11 12 10 3 10 12 5 9 7 11 9 5 6 11 9 4 4 7 12
18 17 20 22 15 20 2 3 10 14 5 5 9 6 6 19 20 18 30 21 9 11 4 6 6 6 10 10 8 12 11 13 10 10 8 9 12 4 2 6 6 3 2 4 9
17 15 19 20 11 19 6 6 5 4 15 6 4 4 15 24 13 25 34 21 9 7 9 2 6 10 13 10 7 12 9 13 8 8 8 8 10 7 6 2 3 7 6 4 8
16 15 18 18 7 16 7 4 4 3 2 4 5 5 16 20 11 20 32 11 10 11 12 5 8 14 12 6 9 10 8 8 5 8 7 6 6 10 8 8 4 2 4 5 8
15 15 17 14 5 9 14 7 2 1 3 2 3 7 14 15 8 20 25 14 11 10 12 8 11 13 9 6 13 5 8 12 12 14 12 7 5 6 8 7 1 6 6 5 5
14 13 16 9 1 3 5 6 1 1 2 8 8 7 14 14 2 19 25 7 9 10 12 3 12 12 14 10 12 5 10 12 14 9 1 4 5 7 10 6 8 11 8 9 4
13 10 15 8 4 3 5 2 0 3 2 10 5 6 13 14 12 17 19 8 10 12 7 10 12 11 12 13 12 7 15 10 10 6 9 4 2 7 15 10 15 13 14 8 1
12 5 14 5 4 3 2 2 2 2 4 5 5 13 16 16 9 14 17 17 4 7 8 9 5 5 10 18 6 15 8 6 7 3 3 5 4 9 8 12 15 14 9 9 5
10 2 12 5 4 5 2 3 1 5 5 9 9 12 11 17 11 17 12 19 15 11 13 17 3 12 14 11 3 15 9 3 3 3 2 5 7 6 8 15 14 15 17 15 6
5 2 7 9 6 1 2 1 6 1 4 7 10 12 7 14 8 14 9 13 16 15 9 10 5 16 14 9 8 12 7 5 3 2 6 1 4 5 12 14 16 16 15 17 18
2 1 3 11 6 2 2 5 3 4 5 10 9 5 5 13 10 10 13 9 11 15 8 9 5 13 11 10 9 8 6 5 5 6 2 4 5 13 19 21 22 21 20 18 16
2 2 4 11 5 3 4 4 2 3 5 4 7 6 6 13 11 12 13 6 10 14 5 5 7 8 11 9 9 8 9 3 3 3 3 6 6 9 22 22 21 21 20 19 20
1 2 4 4 5 5 4 4 3 4 4 5 5 6 5 7 8 7 9 4 12 14 8 6 2 10 6 8 9 10 8 6 4 4 4 3 5 8 14 14 17 17 17 17 17
1 2 7 2 3 3 3 3 1 3 3 2 2 5 5 9 5 5 7 5 13 13 9 5 4 6 4 4 3 5 12 8 5 7 4 4 4 10 14 13 15 17 17 15 16
0 1 5 3 2 3 4 4 3 1 3 3 3 4 3 6 4 5 7 7 10 10 12 8 2 7 2 3 8 6 17 12 9 5 7 6 4 12 14 15 17 18 18 18 17
1 1 4 4 2 4 5 4 3 2 2 3 2 2 6 3 2 5 9 4 10 7 11 7 3 3 6 8 8 10 15 16 8 4 8 7 7 17 21 19 17 19 17 16 15
2 2 1 2 3 7 4 2 3 2 1 1 1 3 5 3 4 3 6 9 4 7 8 5 3 9 11 6 1 11 14 13 10 11 7 10 6 15 17 17 14 13 16 16 18
2 4 3 3 5 5 3 1 2 3 1 1 1 6 5 3 2 6 7 3 3 8 6 7 5 12 3 5 2 4 16 14 9 12 9 9 4 17 16 15 15 13 16 16 17
3 2 3 3 3 2 2 3 3 3 2 1 3 6 4 3 7 9 10 11 11 8 5 5 7 7 2 6 5 5 10 11 4 9 11 7 11 18 19 18 13 14 15 15 17
Wind_Direction
1 359 354 353 352 350 349 346 343 342 338 336 341 339 330 318 317 32 26 354 343 333 324 324 318 317 310 273 259 261 245 258 262 258 261 274 303 284 243 242 265 305 296 45 11
358 357 354 353 351 350 348 344 342 341 342 348 352 350 323 284 295 40 1 341 332 326 324 328 327 324 309 292 265 246 249 257 256 306 283 280 280 283 291 209 257 278 264 283 357
356 357 356 353 350 348 347 344 344 348 354 15 9 347 337 244 264 12 350 340 334 325 318 306 307 304 295 304 277 259 251 274 287 249 175 290 298 276 284 265 213 254 271 296 350
358 357 357 353 350 347 346 346 354 15 20 29 9 346 313 222 343 351 339 333 329 324 313 313 313 301 306 302 306 271 269 279 277 288 273 221 291 274 269 274 288 229 291 237 271
358 356 358 357 351 347 347 347 1 33 16 23 1 358 305 328 354 340 335 329 327 321 307 311 306 324 305 310 305 284 276 290 292 274 272 257 240 260 272 270 293 284 258 274 323
355 355 357 358 356 350 346 354 21 28 28 3 329 343 349 33 335 321 333 335 340 329 313 300 315 314 287 298 292 292 299 290 273 260 238 246 245 237 251 255 254 238 240 310 353
355 353 356 359 359 354 350 8 77 24 10 355 340 327 292 14 348 343 340 335 328 324 306 313 307 293 313 309 326 290 289 278 243 239 223 237 243 241 250 251 228 224 247 272 313
356 353 354 357 359 357 359 25 16 350 36 12 348 313 340 356 344 344 345 339 328 314 294 293 291 280 267 301 276 243 228 290 101 225 210 211 255 249 227 222 221 244 285 277 306
356 354 353 353 356 356 12 71 19 279 271 346 348 297 1 343 353 345 349 332 321 322 304 287 278 283 296 316 287 268 341 351 342 52 322 206 257 180 218 172 203 235 295 324 308
357 355 351 350 354 353 195 109 53 33 310 278 346 245 16 342 332 329 345 333 317 312 273 264 256 308 357 359 354 332 335 323 319 0 325 238 246 308 105 177 136 94 306 292 302
357 355 348 348 352 353 22 276 237 184 37 42 23 23 328 335 325 360 349 329 333 289 336 245 314 355 346 344 322 301 293 304 311 346 283 263 240 180 146 122 47 36 340 291 282
355 354 350 346 355 13 33 52 49 358 66 54 12 303 349 344 336 3 355 354 338 341 340 220 17 351 322 333 319 295 293 328 327 280 299 276 246 163 164 150 157 100 30 336 306
354 353 354 349 13 24 58 48 354 344 285 39 356 345 341 338 355 358 1 333 349 335 355 330 3 331 322 340 351 348 357 340 307 312 268 275 216 169 143 119 152 21 5 313 298
349 355 0 1 16 12 49 346 16 305 270 13 353 33 351 342 229 6 2 348 2 336 342 311 356 344 335 5 346 302 356 320 306 309 296 350 127 126 145 153 34 359 15 329 239
349 360 1 36 354 23 327 354 220 261 300 357 5 329 350 33 335 359 5 350 10 334 326 20 348 350 353 346 332 327 322 293 278 298 322 127 240 30 42 17 354 348 341 331 32
342 338 4 5 48 4 325 132 243 261 19 7 2 353 352 11 12 344 13 12 45 339 323 306 292 311 346 313 301 324 333 249 242 311 260 336 1 38 16 352 356 355 334 291 355
340 333 9 10 1 338 167 214 2 43 347 341 338 341 339 350 7 4 20 40 36 357 359 324 74 7 5 343 331 355 343 189 179 209 48 18 61 50 14 2 358 357 356 356 10
355 352 355 20 346 29 233 272 52 345 360 356 334 326 23 13 359 352 8 23 33 15 303 340 329 8 352 356 313 313 338 352 319 161 121 103 90 56 35 6 5 8 356 11 7
11 318 359 343 357 308 267 50 44 19 353 338 317 343 9 13 348 349 17 26 18 15 6 349 301 341 355 337 346 341 6 313 286 240 233 102 75 227 9 10 6 6 1 360 353
331 270 14 345 5 276 59 93 60 33 347 341 357 9 331 351 360 4 12 33 356 3 35 2 295 327 337 329 10 336 328 296 280 287 141 94 64 5 3 359 350 0 360 347 349
217 257 3 12 26 53 69 62 96 64 10 7 348 320 341 347 334 349 355 28 8 349 349 318 258 316 343 20 355 5 21 340 287 320 329 137 78 14 6 3 348 352 356 345 339
282 274 344 57 38 46 85 81 68 55 48 32 320 326 326 333 324 326 345 356 358 340 348 18 301 296 329 22 347 315 17 349 342 350 347 318 83 18 14 1 360 356 355 346 345
10 4 5 327 81 97 115 97 69 64 40 20 16 6 346 319 319 341 343 2 0 354 360 350 346 308 181 218 21 3 355 338 308 247 8 326 86 17 7 8 8 1 358 354 349
121 33 35 50 8 106 121 107 125 85 82 8 342 294 348 318 324 308 332 350 347 357 351 323 290 330 316 324 332 353 356 358 327 340 333 33 23 6 2 359 357 1 360 356 354
28 96 21 51 58 96 86 145 127 121 83 2 261 360 349 298 305 318 336 334 346 15 1 16 286 331 303 282 334 31 14 10 19 355 27 343 36 9 353 346 347 358 355 359 3
126 140 82 82 107 105 12 103 131 130 105 105 308 333 306 248 322 306 333 325 331 341 354 341 310 326 278 220 236 358 22 6 21 3 358 348 62 1 343 342 348 1 359 356 356
113 73 133 150 126 155 109 149 142 145 155 325 329 313 290 302 317 303 292 279 280 304 319 332 333 337 322 333 311 207 12 358 354 23 343 15 338 338 341 344 346 4 358 349 352